Location: ??
(35.5052°N, 139.7262°E)
Time: 17:53:34
(UTC+00:00)

GPS 2-04 Rocket1 - Pass Details

Date: 20 June 2021
Orbit: 415 x 539 km, 35.6° (Epoch: 29 July)

Event Time Altitude Azimuth Distance (km) Brightness Sun altitude
Exits shadow 17:55:43 18° 275° (W) 1,315 4.4 -15.5°
Maximum altitude 17:58:38 82° 190° (S) 508 2.5 -15.0°
Drops below altitude 10° 18:02:27 10° 102° (ESE) 1,661 5.7 -14.5°
Sets 18:04:36 0° 101° (ESE) 2,516 6.7 -14.2°
